Location: Anmer
(52.8333°N, 0.5833°E)
Time: 04:38:15
(UTC+00:00)

MetOp-A - Pass Details

Date: 15 May 2026
Orbit: 519 x 765 km, 98.3° (Epoch: 6 June)

Event Time Altitude Azimuth Distance (km) Brightness Sun altitude
Exits shadow 23:42:46 34° 163° (SSE) 1,172 4.4 -18.1°
Maximum altitude 23:44:55 89° 62° (ENE) 708 3.8 -18.1°
Drops below altitude 10° 23:49:33 10° 345° (NNW) 2,102 7.5 -18.1°
Sets 23:51:42 0° 345° (NNW) 2,980 8.6 -18.1°
